Regional Weather Roundup
Issued by NWS Newport/Morehead, NC

Current Version | Previous Version | Graphics & Text | Print | Product List | Glossary Off
Versions: 1 2 3 4 5 6 7 8 9 10 11 12 13 14 15 16 17 18 19 20 21 22 23 24 25 26 27 28 29 30 31 32 33 34 35 36 37 38 39 40 41 42 43 44 45 46 47 48 49 50

000
ASUS42 KMHX 240525
RWRMHX
WEATHER ROUNDUP FOR EASTERN NORTH CAROLINA
NATIONAL WEATHER SERVICE NEWPORT/MOREHEAD CITY NC
100 AM EDT TUE MAY 24 2016

NOTE: "FAIR" INDICATES FEW OR NO CLOUDS BELOW 12,000 FEET
WITH NO SIGNIFICANT WEATHER AND/OR OBSTRUCTIONS TO VISIBILITY

NCZ015>017-031-032-045>047-102-103-240600-
NORTH COAST

CITY           SKY/WX    TMP DP  RH WIND       PRES   REMARKS
EDENTON        MOCLDY   N/A N/A N/A W6        30.00S
ELIZABETH CITY CLOUDY    57  55  93 W6        29.97F
KITTY HAWK     CLEAR     58  54  84 CALM      29.95F
MANTEO         PTCLDY    60  58  96 W6        29.97F

$$

NCZ045>047-081-094-103-104-240600-
CENTRAL COAST

CITY           SKY/WX    TMP DP  RH WIND       PRES   REMARKS
FRISCO         PTCLDY    62  55  77 NW6       29.99S

$$

NCZ095-097-098-100-101-240600-
SOUTHERN COAST

CITY           SKY/WX    TMP DP  RH WIND       PRES   REMARKS
BEAUFORT       PTCLDY    59  56  89 W7        30.02F
CEDAR ISLAND   NOT AVBL
JACKSONVILLE   PTCLDY    56  52  86 CALM      30.03S
PINEY ISLAND   NOT AVBL
WILMINGTON     PTCLDY    56  54  93 CALM      30.04F


$$

NCZ011>013-027>030-043-044-078>080-089-090>093-098-240600-
COASTAL PLAIN

CITY           SKY/WX    TMP DP  RH WIND       PRES   REMARKS
AHOSKIE        PTCLDY    55  52  92 CALM      30.01S
CLINTON        CLEAR     53  53 100 CALM      30.05S
ELIZABETHTOWN  CLEAR     56  55  94 CALM      30.05S
GOLDSBORO      CLEAR     53  53 100 CALM      30.02S
GREENVILLE     PTCLDY    54  54 100 CALM      30.03F
HAVELOCK       CLEAR     54  52  93 SW6       30.04S
KENANSVILLE    CLEAR     49  49  99 CALM      30.05S
KINSTON        CLEAR     53  52  97 CALM      30.04S
NEW BERN       CLEAR     54  52  93 SW5       30.04S
RICHLANDS      CLEAR     52  51  97 CALM      30.04F
ROCKY MOUNT    CLEAR     51  49  92 S5        30.02F
WASHINGTON     PTCLDY    54  52  94 CALM      30.01S
WHITEVILLE     CLEAR     55  53  95 CALM      30.05S

$$

AMZ130-135-150-152-154-156-158-170-250-252-270-ANZ085-086-088-633-658-670-240600-
MARINE OBSERVATIONS

STATION/POSITION TIME  TEMP    WIND        PRES    WAVE   SWELL
                       AIR SEA DIR/SP/G            HT/PER HT/PER
                 (UTC) (F)     (DEG/KT/KT) (MB)    (FT/S) (FT/S)
CHESAPEAKE LIGHT 0500   58     270/  6/  6 1015.1
64 E VA BEACH    0450   57 66  330/ 12/ 14 1013.5    7/ 9   7/ 9
DUCK             0500   61 63  290/  6/  8 1013.9
2 E DUCK         0411      62                N/A     4/10   2/11
OREGON INLET     0500   60 65  270/  6/  8 1014.6
13E OREGON INLT  0500      61                N/A     5/ 9   5/ 9
HATTERAS CG      0500   63 68  300/ 11/ 12 1014.9
DIAMOND BUOY     0450   63 67  310/ 12/ 16 1015.3    4/ 9   3/ 9
CAPE LOOKOUT     0500   62     300/  8/ 10 1016.2
BEAUFORT LAB     0500   61 67  300/  6/  8 1015.8
30 SE NEW RVR IN 0425      73                N/A     2/ 8
27 SE WRIGHTSVLE 0508   66 72  340/ 10/ 14 1016.6
5 SE WRIGHTSVLE  0408   65 72  330/  8/ 12 1017.9
225 S CAPE HAT   0450   73 77  280/ 12/ 16 1016.3    4/ 7   3/ 7
41 SE CHARLESTON 0450   71 75   10/ 10/ 12 1017.3    2/ 9   2/ 9

$$



USA.gov is the U.S. government's official web portal to all federal, state and local government web resources and services.